Time,TemperatureF,DewpointF,PressureIn,WindDirection,WindDirectionDegrees,WindSpeedMPH,WindSpeedGustMPH,Humidity,HourlyPrecipIn,Conditions,Clouds,dailyrainin,SoftwareType,DateUTC
2014-02-09 00:00:00,46.5,41.9,30.15,N/A,-327680,0.0,0.0,84,0.00,,,0.00,Wunderground PWS Mod,2014-02-09 08:00:00,
2014-02-09 00:30:00,46.5,41.9,30.15,N/A,-327680,0.0,0.0,84,0.00,,,0.00,Wunderground PWS Mod,2014-02-09 08:30:00,
2014-02-09 01:00:00,47.0,43.0,30.14,N/A,-327680,0.0,0.0,86,0.00,,,0.00,Wunderground PWS Mod,2014-02-09 09:00:00,
2014-02-09 01:30:00,48.5,44.8,30.14,N/A,-327680,0.0,0.0,87,0.00,,,0.00,Wunderground PWS Mod,2014-02-09 09:30:00,
2014-02-09 02:00:00,49.0,45.6,30.13,N/A,-327680,0.0,0.0,88,0.00,,,0.00,Wunderground PWS Mod,2014-02-09 10:00:00,
2014-02-09 02:30:00,48.8,45.4,30.13,N/A,-327680,0.0,0.0,88,0.00,,,0.00,Wunderground PWS Mod,2014-02-09 10:30:00,
2014-02-09 03:00:00,48.9,45.8,30.11,N/A,-327680,0.0,0.0,89,0.00,,,0.00,Wunderground PWS Mod,2014-02-09 11:00:00,
2014-02-09 03:30:00,49.1,46.0,30.11,N/A,-327680,0.0,0.0,89,0.00,,,0.00,Wunderground PWS Mod,2014-02-09 11:30:00,
2014-02-09 04:00:00,49.1,46.0,30.11,N/A,-327680,0.0,0.0,89,0.00,,,0.00,Wunderground PWS Mod,2014-02-09 12:00:00,
2014-02-09 04:30:00,48.6,45.8,30.12,North,0,0.0,2.0,90,0.00,,,0.00,Wunderground PWS Mod,2014-02-09 12:30:00,
2014-02-09 05:00:00,48.2,45.4,30.12,North,0,0.0,3.0,90,0.00,,,0.00,Wunderground PWS Mod,2014-02-09 13:00:00,
2014-02-09 05:30:00,48.1,45.3,30.12,N/A,-327680,0.0,0.0,90,0.00,,,0.00,Wunderground PWS Mod,2014-02-09 13:30:00,
2014-02-09 06:00:00,48.4,45.6,30.12,N/A,-327680,0.0,0.0,90,0.00,,,0.00,Wunderground PWS Mod,2014-02-09 14:00:00,
2014-02-09 06:30:00,48.2,45.4,30.12,N/A,-327680,0.0,0.0,90,0.00,,,0.00,Wunderground PWS Mod,2014-02-09 14:30:00,
2014-02-09 07:00:00,48.1,45.3,30.13,North,10,0.0,2.0,90,0.00,,,0.00,Wunderground PWS Mod,2014-02-09 15:00:00,
2014-02-09 07:30:00,48.4,45.6,30.13,N/A,-327680,0.0,0.0,90,0.00,,,0.00,Wunderground PWS Mod,2014-02-09 15:30:00,
2014-02-09 08:00:00,49.0,46.2,30.14,N/A,-327680,0.0,0.0,90,0.00,,,0.00,Wunderground PWS Mod,2014-02-09 16:00:00,
2014-02-09 08:30:00,49.6,46.8,30.14,N/A,-327680,0.0,0.0,90,0.00,,,0.00,Wunderground PWS Mod,2014-02-09 16:30:00,
2014-02-09 09:00:00,49.7,46.9,30.14,North,0,0.0,2.0,90,0.00,,,0.00,Wunderground PWS Mod,2014-02-09 17:00:00,
2014-02-09 09:30:00,50.1,47.3,30.15,North,0,0.0,2.0,90,0.00,,,0.00,Wunderground PWS Mod,2014-02-09 17:30:00,
2014-02-09 10:00:00,50.4,47.3,30.16,West,281,0.0,2.0,89,0.00,,,0.00,Wunderground PWS Mod,2014-02-09 18:00:00,
2014-02-09 10:30:00,50.5,47.4,30.15,North,356,0.0,2.0,89,0.00,,,0.00,Wunderground PWS Mod,2014-02-09 18:30:00,
2014-02-09 11:00:00,50.5,47.1,30.15,NW,322,0.0,0.0,88,0.00,,,0.00,Wunderground PWS Mod,2014-02-09 19:00:00,
2014-02-09 11:30:00,51.3,47.6,30.13,NE,47,0.0,2.0,87,0.00,,,0.00,Wunderground PWS Mod,2014-02-09 19:30:00,
2014-02-09 12:00:00,52.2,48.1,30.12,East,89,0.0,2.0,86,0.00,,,0.00,Wunderground PWS Mod,2014-02-09 20:00:00,
2014-02-09 12:30:00,53.3,48.3,30.10,ESE,106,0.0,2.0,83,0.00,,,0.00,Wunderground PWS Mod,2014-02-09 20:30:00,
2014-02-09 13:00:00,53.8,47.8,30.09,SSE,158,0.0,1.0,80,0.00,,,0.00,Wunderground PWS Mod,2014-02-09 21:00:00,
2014-02-09 13:30:00,54.1,47.0,30.07,South,181,0.0,2.0,77,0.00,,,0.00,Wunderground PWS Mod,2014-02-09 21:30:00,
2014-02-09 14:00:00,55.0,46.5,30.05,ENE,58,0.0,3.0,73,0.00,,,0.00,Wunderground PWS Mod,2014-02-09 22:00:00,
2014-02-09 14:30:00,56.9,47.2,30.05,NNW,330,2.0,3.0,70,0.00,,,0.00,Wunderground PWS Mod,2014-02-09 22:30:00,
2014-02-09 15:00:00,57.2,45.9,30.05,North,0,0.0,2.0,66,0.00,,,0.00,Wunderground PWS Mod,2014-02-09 23:00:00,
2014-02-09 15:30:00,59.2,46.2,30.04,WNW,299,0.0,3.0,62,0.00,,,0.00,Wunderground PWS Mod,2014-02-09 23:30:00,
2014-02-09 16:00:00,60.2,45.8,30.03,SE,128,0.0,2.0,59,0.00,,,0.00,Wunderground PWS Mod,2014-02-10 00:00:00,
2014-02-09 16:30:00,60.1,45.3,30.03,SE,130,0.0,3.0,58,0.00,,,0.00,Wunderground PWS Mod,2014-02-10 00:30:00,
2014-02-09 17:00:00,57.5,45.8,30.03,East,82,0.0,2.0,65,0.00,,,0.00,Wunderground PWS Mod,2014-02-10 01:00:00,
2014-02-09 17:30:00,55.7,44.9,30.04,East,92,0.0,6.0,67,0.00,,,0.00,Wunderground PWS Mod,2014-02-10 01:30:00,
2014-02-09 18:00:00,54.4,44.8,30.05,East,92,0.0,2.0,70,0.00,,,0.00,Wunderground PWS Mod,2014-02-10 02:00:00,
2014-02-09 18:30:00,53.3,44.9,30.05,East,92,0.0,2.0,73,0.00,,,0.00,Wunderground PWS Mod,2014-02-10 02:30:00,
2014-02-09 19:00:00,52.2,44.5,30.06,East,92,0.0,0.0,75,0.00,,,0.00,Wunderground PWS Mod,2014-02-10 03:00:00,
2014-02-09 19:30:00,51.0,44.0,30.06,East,92,0.0,0.0,77,0.00,,,0.00,Wunderground PWS Mod,2014-02-10 03:30:00,
2014-02-09 20:00:00,50.5,44.2,30.06,East,92,0.0,0.0,79,0.00,,,0.00,Wunderground PWS Mod,2014-02-10 04:00:00,
2014-02-09 20:30:00,51.7,46.1,30.06,ENE,73,0.0,0.0,81,0.00,,,0.00,Wunderground PWS Mod,2014-02-10 04:30:00,
2014-02-09 21:00:00,52.3,46.6,30.06,NNE,30,0.0,1.0,81,0.00,,,0.00,Wunderground PWS Mod,2014-02-10 05:00:00,
2014-02-09 21:30:00,53.3,47.6,30.07,ESE,120,0.0,3.0,81,0.00,,,0.00,Wunderground PWS Mod,2014-02-10 05:30:00,
2014-02-09 22:00:00,53.6,48.2,30.09,SE,140,0.0,2.0,82,0.00,,,0.00,Wunderground PWS Mod,2014-02-10 06:00:00,
2014-02-09 22:30:00,53.6,48.2,30.05,N/A,-327680,0.0,0.0,82,0.00,,,0.00,Wunderground PWS Mod,2014-02-10 06:30:00,
2014-02-09 23:00:00,53.5,48.1,30.05,N/A,-327680,0.0,0.0,82,0.00,,,0.00,Wunderground PWS Mod,2014-02-10 07:00:00,
2014-02-09 23:30:00,53.1,47.4,30.06,SE,140,0.0,1.0,81,0.00,,,0.00,Wunderground PWS Mod,2014-02-10 07:30:00,